Tracking 35237 objects as of 6-Sep-2026
HD Live streaming from Space Station
objects crossing your sky now

ARIANE 3 DEB

Track ARIANE 3 DEB now!
10-day predictions


NORAD ID: 22101
Int'l Code: 1988-063G
Launch date: July 21, 1988
Source: France (FR)
Launch site: FRENCH GUIANA (FRGUI)

Note: This is SATELLITE DEBRIS
Your satellite tracking list
Your tracking list is empty




NASA's NSSDC Master Catalog

Two Line Element Set (TLE):
1 22101U 88063G   25299.15948447  .00014891  00000-0  64359-2 0  9992
2 22101   7.7994 309.0290 4163087 120.1726 287.4607  6.92627079322363
Source of the keplerian elements: AFSPC